Regional Weather Roundup
Issued by NWS

Home | Current Version | Previous Version | Graphics & Text | Print | Product List | Glossary On
Versions: 1 2 3 4 5 6 7 8 9 10 11 12 13 14 15 16 17 18 19 20 21 22 23 24 25 26 27 28 29 30 31 32 33 34 35 36 37 38 39 40 41 42 43 44 45 46 47 48 49 50
000
ASUS43 KTOP 142259
RWRKS

WEATHER ROUNDUP FOR KANSAS
NATIONAL WEATHER SERVICE GOODLAND KS
600 PM CDT SUN SEP 14 2014

NOTE:  "FAIR" INDICATES FEW OR NO CLOUDS BELOW 12,000 FEET WITH NO
SIGNIFICANT WEATHER AND/OR OBSTRUCTIONS TO VISIBILITY.

KSZ001>006-013>018-027>032-041>047-150000-
NORTHWEST KANSAS

CITY           SKY/WX    TMP DP  RH WIND       PRES   REMARKS
GOODLAND       SUNNY     74  56  53 S14       30.00F
HAYS           CLOUDY    82  63  51 S14       29.96F
HILL CITY      SUNNY     82  59  45 SE9       29.97F
RUSSELL        CLOUDY    79  61  53 SE10      29.96F
$$

KSZ061>065-074>080-084>089-150000-
SOUTHWEST KANSAS

CITY           SKY/WX    TMP DP  RH WIND       PRES   REMARKS
DODGE CITY     MOSUNNY   85  58  39 S22G32    29.99R
ELKHART          N/A    N/A N/A N/A MISG        N/A
GARDEN CITY    SUNNY     86  59  39 S18G24    29.97F
GREAT BEND     PTSUNNY   84  61  45 S22       29.97S
LIBERAL        SUNNY     86  59  39 S28       30.02R
$$

KSZ066>073-081>083-090>101-150000-
SOUTHEAST KANSAS

CITY           SKY/WX    TMP DP  RH WIND       PRES   REMARKS
CHANUTE        SUNNY     75  57  53 S14       30.10F
COFFEYVILLE    SUNNY     75  60  59 S10       30.11S
HUTCHINSON     SUNNY     83  59  44 S22G29    30.01F
NEWTON         SUNNY     79  57  47 S20       30.06F
PARSONS        SUNNY     76  58  53 S7        30.12S
WICHITA INTL   MOSUNNY   83  58  42 S21G31    30.03F
WICHITA JABRA  MOSUNNY   79  60  52 S17G26    30.04F
WINFIELD       SUNNY     78  62  57 S16       30.08F
$$

KSZ007>012-019>026-033>040-048>060-102>105-150000-
NORTHEAST KANSAS

CITY           SKY/WX    TMP DP  RH WIND       PRES   REMARKS
CONCORDIA      PTSUNNY   70  59  68 SE8       30.02F
EMPORIA        MOSUNNY   73  58  59 S13       30.09S
LAWRENCE       CLOUDY    71  55  56 SE14      30.09F
MANHATTAN      MOSUNNY   75  57  53 SE12      30.05F
OLATHE IND     CLOUDY    70  56  61 S8        30.12F
OLATHE EXE     MOSUNNY   68  55  63 S10       30.11F
SALINA         SUNNY     78  59  51 SE14      30.02F
TOPEKA BILLARD PTSUNNY   74  56  53 SE17      30.07F
TOPEKA FORBES  MOSUNNY   73  54  51 SE12      30.07F
$$



USA.gov is the U.S. government's official web portal to all federal, state and local government web resources and services.